Cloud_Cover
35 6 40 5 5 48 6 12 6 76 48 5 5 0 0 5 5 5 5 16 96 10 100 100 14 0 0 0 0 0 0 2 5 5 24 0 4 63 19 26 14 2 100 100
59 18 8 5 16 84 9 5 7 26 11 5 5 0 0 0 3 4 5 27 98 68 100 100 66 0 0 0 0 0 0 5 5 8 91 4 7 8 14 43 0 57 100 100
81 42 41 5 5 62 11 5 5 27 5 5 5 5 0 0 2 5 6 51 100 46 100 100 38 3 0 0 0 0 0 5 5 26 5 5 5 2 14 7 24 61 95 100
87 56 45 58 30 7 20 8 5 5 46 21 5 5 5 0 0 5 5 42 100 14 100 100 81 3 0 0 0 0 0 5 5 2 5 5 20 66 9 25 99 100 100 100
62 69 68 98 87 9 76 48 7 30 20 98 96 59 5 5 2 5 6 74 98 42 100 100 99 4 5 0 0 0 0 5 5 5 4 7 18 14 4 24 14 17 94 100
73 91 100 100 100 100 100 100 81 38 50 100 100 100 100 5 5 2 5 5 29 100 100 100 97 11 5 0 0 0 0 1 5 4 36 17 33 32 14 16 32 47 100 100
100 100 100 100 100 100 100 89 100 100 93 100 100 100 42 11 5 3 3 5 28 94 94 100 97 91 7 1 0 0 0 0 5 5 65 42 100 97 30 43 99 92 93 95
100 100 100 100 100 100 100 100 100 92 100 100 100 16 23 26 6 5 5 5 5 46 99 100 97 100 5 4 0 0 0 0 2 5 57 38 100 99 70 36 81 96 100 98
96 100 100 100 100 100 100 100 100 100 100 100 95 63 10 38 65 5 2 5 5 5 100 100 76 100 85 11 0 0 0 0 0 6 82 47 99 100 90 100 82 100 95 86
100 100 100 100 100 100 100 100 100 100 97 95 99 84 5 73 100 13 0 2 3 5 75 100 98 100 85 17 8 0 0 0 0 68 86 100 97 93 98 100 100 100 100 100
100 100 100 100 100 100 100 100 100 100 100 54 12 74 5 5 100 97 3 5 32 5 26 54 100 100 100 13 9 0 0 0 40 100 100 30 74 59 79 100 100 100 100 100
100 100 100 100 100 100 100 98 100 100 100 6 25 84 5 2 100 96 3 5 41 5 5 79 100 85 100 69 12 9 0 0 73 100 77 49 97 100 99 97 100 100 100 100
100 100 100 100 100 98 82 100 100 100 98 6 37 30 3 4 100 99 4 5 54 6 5 71 100 94 100 98 8 51 2 0 95 100 94 100 100 100 94 60 98 100 100 100
100 100 100 100 100 37 98 99 100 100 49 34 74 80 0 5 99 96 44 5 91 84 21 8 99 100 100 100 63 5 5 0 96 86 98 100 100 100 92 96 81 98 100 100
100 100 100 100 100 11 40 99 100 100 8 19 12 5 0 5 8 82 100 67 5 95 84 5 42 100 100 100 100 32 5 0 26 9 96 100 100 100 100 94 100 97 100 100
100 100 100 100 48 5 40 100 100 100 98 100 73 10 2 2 5 31 79 100 60 78 75 9 5 74 100 100 100 100 35 2 0 1 30 100 100 100 100 100 100 100 100 100
100 100 100 83 31 21 23 98 100 100 100 100 100 100 5 5 5 5 31 99 93 5 28 22 5 5 94 100 100 100 99 8 1 15 7 77 100 100 100 100 100 100 100 100
100 100 100 100 100 79 100 100 100 100 100 84 100 100 100 9 2 5 5 10 100 20 22 65 5 5 22 100 100 100 100 85 38 4 0 17 100 100 100 100 100 100 100 100
100 100 100 100 100 100 100 100 100 100 100 17 100 99 45 2 0 5 5 42 100 98 95 95 25 6 7 96 100 100 100 100 85 15 5 5 9 90 100 100 100 100 100 100
100 100 100 100 100 100 100 100 100 100 100 100 100 86 44 1 0 1 5 5 96 100 100 99 84 14 5 61 75 77 67 65 49 83 38 25 5 5 7 76 99 100 100 100
100 100 100 100 100 92 100 100 100 100 100 100 100 48 76 98 2 0 5 5 38 100 100 99 94 68 72 70 100 84 100 51 90 15 24 31 73 5 5 5 11 36 80 98
100 100 100 100 100 84 100 100 100 97 66 100 87 92 100 100 70 0 18 100 30 68 100 100 100 100 97 100 100 100 100 92 86 100 63 12 32 100 95 33 15 15 71 67
100 100 100 100 100 100 100 100 100 100 100 98 35 100 100 100 78 0 5 9 100 100 100 100 100 100 100 100 100 100 100 100 100 100 100 98 85 55 100 100 100 95 39 84
100 96 77 100 78 91 100 100 100 100 100 100 62 100 100 100 94 5 5 6 99 100 100 96 100 100 100 87 100 98 100 100 100 100 100 100 100 100 100 100 100 100 100 100
100 100 73 91 100 100 100 100 100 100 95 100 100 100 100 100 100 16 100 6 5 59 100 100 100 100 100 100 100 100 100 100 97 100 100 100 99 99 84 89 97 100 100 100
100 100 100 100 100 100 100 100 100 96 100 99 100 100 96 100 100 90 100 84 86 89 12 90 100 100 100 100 100 100 100 100 100 100 100 100 98 83 90 57 95 100 98 100